owner,sensor,date,latitude,longitude,vertical_datum,wind_speed,wind_to_direction,wind_speed_of_gust,qcFlag 
TCOON,ioos:station:TCOON:013:1,2016-04-01T00:18:00Z,27.4847,-97.3181,0.0,4.7,127.0,5.6,'1111122,1111122,1111122' 
TCOON,ioos:station:TCOON:013:1,2016-04-01T01:18:00Z,27.4847,-97.3181,0.0,4.5,138.0,5.4,'1111122,1111122,1111122' 
TCOON,ioos:station:TCOON:013:1,2016-04-01T02:18:00Z,27.4847,-97.3181,0.0,3.5,132.0,4.2,'1111122,1111122,1111122' 
TCOON,ioos:station:TCOON:013:1,2016-04-01T03:18:00Z,27.4847,-97.3181,0.0,3.8,128.0,4.8,'1111122,1111122,1111122' 
TCOON,ioos:station:TCOON:013:1,2016-04-01T04:24:00Z,27.4847,-97.3181,0.0,4.0,122.0,5.9,'1111122,1111122,1111122' 
TCOON,ioos:station:TCOON:013:1,2016-04-01T05:24:00Z,27.4847,-97.3181,0.0,4.3,135.0,6.1,'1111122,1111122,1111122' 
TCOON,ioos:station:TCOON:013:1,2016-04-01T06:18:00Z,27.4847,-97.3181,0.0,4.9,118.0,6.1,'1111122,1111122,1111122' 
TCOON,ioos:station:TCOON:013:1,2016-04-01T07:18:00Z,27.4847,-97.3181,0.0,2.0,117.0,3.6,'1111122,1111122,1111122' 
TCOON,ioos:station:TCOON:013:1,2016-04-01T08:18:00Z,27.4847,-97.3181,0.0,2.0,43.0,3.4,'1111122,1111122,1111122' 
TCOON,ioos:station:TCOON:013:1,2016-04-01T09:18:00Z,27.4847,-97.3181,0.0,4.0,36.0,5.1,'1111122,1111122,1111122' 
TCOON,ioos:station:TCOON:013:1,2016-04-01T10:18:00Z,27.4847,-97.3181,0.0,4.9,50.0,6.0,'1111122,1111122,1111122' 
TCOON,ioos:station:TCOON:013:1,2016-04-01T11:18:00Z,27.4847,-97.3181,0.0,7.1,41.0,9.2,'1111122,1111122,1111122' 
TCOON,ioos:station:TCOON:013:1,2016-04-01T12:18:00Z,27.4847,-97.3181,0.0,5.8,40.0,7.8,'1111122,1111122,1111122' 
TCOON,ioos:station:TCOON:013:1,2016-04-01T13:18:00Z,27.4847,-97.3181,0.0,8.8,32.0,9.7,'1111122,1111122,1111122' 
TCOON,ioos:station:TCOON:013:1,2016-04-01T14:18:00Z,27.4847,-97.3181,0.0,10.0,28.0,12.2,'1111122,1111122,1111122' 
TCOON,ioos:station:TCOON:013:1,2016-04-01T15:18:00Z,27.4847,-97.3181,0.0,10.6,16.0,12.2,'1111122,1111122,1111122' 
TCOON,ioos:station:TCOON:013:1,2016-04-01T16:18:00Z,27.4847,-97.3181,0.0,11.2,29.0,13.3,'1111122,1111122,1111122' 
TCOON,ioos:station:TCOON:013:1,2016-04-01T17:24:00Z,27.4847,-97.3181,0.0,11.9,20.0,14.1,'1111122,1111122,1111122' 
TCOON,ioos:station:TCOON:013:1,2016-04-01T18:18:00Z,27.4847,-97.3181,0.0,9.6,21.0,12.3,'1111122,1111122,1111122' 
TCOON,ioos:station:TCOON:013:1,2016-04-01T19:18:00Z,27.4847,-97.3181,0.0,11.3,9.0,13.2,'1111122,1111122,1111122' 
TCOON,ioos:station:TCOON:013:1,2016-04-01T20:18:00Z,27.4847,-97.3181,0.0,10.9,15.0,13.6,'1111122,1111122,1111122' 
TCOON,ioos:station:TCOON:013:1,2016-04-01T21:18:00Z,27.4847,-97.3181,0.0,11.4,18.0,13.6,'1111122,1111122,1111122' 
TCOON,ioos:station:TCOON:013:1,2016-04-01T22:18:00Z,27.4847,-97.3181,0.0,10.2,10.0,12.4,'1111122,1111122,1111122' 
TCOON,ioos:station:TCOON:013:1,2016-04-01T23:18:00Z,27.4847,-97.3181,0.0,10.8,6.0,13.0,'1111122,1111122,1111122' 
TCOON,ioos:station:TCOON:013:1,2016-04-02T00:18:00Z,27.4847,-97.3181,0.0,11.7,18.0,13.1,'1111122,1111122,1111122' 
TCOON,ioos:station:TCOON:013:1,2016-04-02T01:18:00Z,27.4847,-97.3181,0.0,13.0,1.0,15.4,'1111122,1111122,1111122' 
TCOON,ioos:station:TCOON:013:1,2016-04-02T02:18:00Z,27.4847,-97.3181,0.0,13.3,357.0,15.5,'1111122,1111122,1111122' 
TCOON,ioos:station:TCOON:013:1,2016-04-02T03:18:00Z,27.4847,-97.3181,0.0,11.2,0.0,13.8,'1111122,1114422,1111122' 
TCOON,ioos:station:TCOON:013:1,2016-04-02T04:18:00Z,27.4847,-97.3181,0.0,11.7,3.0,13.4,'1111122,1111122,1111122' 
TCOON,ioos:station:TCOON:013:1,2016-04-02T05:18:00Z,27.4847,-97.3181,0.0,10.4,359.0,13.5,'1111122,1111122,1111122' 
TCOON,ioos:station:TCOON:013:1,2016-04-02T06:24:00Z,27.4847,-97.3181,0.0,10.0,1.0,12.2,'1111122,1111122,1111122' 
TCOON,ioos:station:TCOON:013:1,2016-04-02T07:18:00Z,27.4847,-97.3181,0.0,9.8,358.0,11.9,'1111122,1111122,1111122' 
TCOON,ioos:station:TCOON:013:1,2016-04-02T08:18:00Z,27.4847,-97.3181,0.0,9.0,3.0,10.6,'1111122,1111122,1111122' 
TCOON,ioos:station:TCOON:013:1,2016-04-02T09:18:00Z,27.4847,-97.3181,0.0,8.2,12.0,11.0,'1111122,1111122,1111122' 
TCOON,ioos:station:TCOON:013:1,2016-04-02T10:18:00Z,27.4847,-97.3181,0.0,8.6,358.0,9.8,'1111122,1111122,1111122' 
TCOON,ioos:station:TCOON:013:1,2016-04-02T11:18:00Z,27.4847,-97.3181,0.0,7.2,339.0,8.0,'1111122,1111122,1111122' 
TCOON,ioos:station:TCOON:013:1,2016-04-02T12:18:00Z,27.4847,-97.3181,0.0,8.4,339.0,9.6,'1111122,1111122,1111122' 
TCOON,ioos:station:TCOON:013:1,2016-04-02T13:18:00Z,27.4847,-97.3181,0.0,7.4,334.0,9.6,'1111122,1111122,1111122' 
TCOON,ioos:station:TCOON:013:1,2016-04-02T14:18:00Z,27.4847,-97.3181,0.0,7.6,343.0,8.7,'1111122,1111122,1111122' 
TCOON,ioos:station:TCOON:013:1,2016-04-02T15:18:00Z,27.4847,-97.3181,0.0,7.5,4.0,8.9,'1111122,1111122,1111122' 
TCOON,ioos:station:TCOON:013:1,2016-04-02T16:18:00Z,27.4847,-97.3181,0.0,6.4,359.0,7.1,'1111122,1111122,1111122' 
TCOON,ioos:station:TCOON:013:1,2016-04-02T17:18:00Z,27.4847,-97.3181,0.0,5.7,21.0,6.6,'1111122,1111122,1111122' 
TCOON,ioos:station:TCOON:013:1,2016-04-02T18:18:00Z,27.4847,-97.3181,0.0,5.3,29.0,6.1,'1111122,1111122,1111122' 
TCOON,ioos:station:TCOON:013:1,2016-04-02T19:18:00Z,27.4847,-97.3181,0.0,3.6,27.0,4.2,'1111122,1111122,1111122' 
TCOON,ioos:station:TCOON:013:1,2016-04-02T20:18:00Z,27.4847,-97.3181,0.0,3.6,56.0,5.5,'1111122,1111122,1111122' 
TCOON,ioos:station:TCOON:013:1,2016-04-02T21:18:00Z,27.4847,-97.3181,0.0,4.1,90.0,5.6,'1111122,1111122,1111122' 
TCOON,ioos:station:TCOON:013:1,2016-04-02T22:18:00Z,27.4847,-97.3181,0.0,4.0,97.0,5.3,'1111122,1111122,1111122' 
TCOON,ioos:station:TCOON:013:1,2016-04-02T23:18:00Z,27.4847,-97.3181,0.0,3.8,106.0,4.7,'1111122,1111122,1111122' 
TCOON,ioos:station:TCOON:013:1,2016-04-03T00:18:00Z,27.4847,-97.3181,0.0,3.2,125.0,4.2,'1111122,1111122,1111122' 
TCOON,ioos:station:TCOON:013:1,2016-04-03T01:18:00Z,27.4847,-97.3181,0.0,2.0,155.0,2.6,'1111122,1111122,1111122' 
TCOON,ioos:station:TCOON:013:1,2016-04-03T02:18:00Z,27.4847,-97.3181,0.0,1.6,169.0,1.8,'1111122,1111122,1111122' 
TCOON,ioos:station:TCOON:013:1,2016-04-03T03:18:00Z,27.4847,-97.3181,0.0,1.4,181.0,1.6,'1111122,1111122,1111122' 
TCOON,ioos:station:TCOON:013:1,2016-04-03T04:24:00Z,27.4847,-97.3181,0.0,1.4,239.0,1.6,'1111122,1111122,1111122' 
TCOON,ioos:station:TCOON:013:1,2016-04-03T05:18:00Z,27.4847,-97.3181,0.0,2.8,181.0,3.1,'1111122,1111122,1111122' 
TCOON,ioos:station:TCOON:013:1,2016-04-03T06:18:00Z,27.4847,-97.3181,0.0,4.2,240.0,4.7,'1111122,1111122,1111122' 
TCOON,ioos:station:TCOON:013:1,2016-04-03T07:18:00Z,27.4847,-97.3181,0.0,5.1,241.0,5.9,'1111122,1111122,1111122' 
TCOON,ioos:station:TCOON:013:1,2016-04-03T08:18:00Z,27.4847,-97.3181,0.0,6.1,241.0,7.2,'1111122,1111122,1111122' 
TCOON,ioos:station:TCOON:013:1,2016-04-03T09:18:00Z,27.4847,-97.3181,0.0,4.9,248.0,5.6,'1111122,1111122,1111122' 
TCOON,ioos:station:TCOON:013:1,2016-04-03T10:18:00Z,27.4847,-97.3181,0.0,3.7,242.0,4.6,'1111122,1111122,1111122' 
TCOON,ioos:station:TCOON:013:1,2016-04-03T11:18:00Z,27.4847,-97.3181,0.0,5.3,233.0,6.6,'1111122,1111122,1111122' 
TCOON,ioos:station:TCOON:013:1,2016-04-03T12:18:00Z,27.4847,-97.3181,0.0,4.1,243.0,4.9,'1111122,1111122,1111122' 
TCOON,ioos:station:TCOON:013:1,2016-04-03T13:18:00Z,27.4847,-97.3181,0.0,2.5,257.0,3.1,'1111122,1111122,1111122' 
TCOON,ioos:station:TCOON:013:1,2016-04-03T14:18:00Z,27.4847,-97.3181,0.0,2.2,265.0,2.9,'1111122,1111122,1111122' 
TCOON,ioos:station:TCOON:013:1,2016-04-03T15:18:00Z,27.4847,-97.3181,0.0,2.6,282.0,2.8,'1111122,1111122,1111122' 
TCOON,ioos:station:TCOON:013:1,2016-04-03T16:18:00Z,27.4847,-97.3181,0.0,0.8,251.0,1.2,'1111122,1111122,1111122' 
TCOON,ioos:station:TCOON:013:1,2016-04-03T17:18:00Z,27.4847,-97.3181,0.0,0.5,334.0,0.6,'1111122,1111122,1111122' 
TCOON,ioos:station:TCOON:013:1,2016-04-03T18:18:00Z,27.4847,-97.3181,0.0,2.1,109.0,4.0,'1111122,1111122,1111122' 
TCOON,ioos:station:TCOON:013:1,2016-04-03T19:18:00Z,27.4847,-97.3181,0.0,4.5,125.0,5.6,'1111122,1111122,1111122' 
TCOON,ioos:station:TCOON:013:1,2016-04-03T20:18:00Z,27.4847,-97.3181,0.0,5.8,119.0,7.5,'1111122,1111122,1111122' 
TCOON,ioos:station:TCOON:013:1,2016-04-03T21:18:00Z,27.4847,-97.3181,0.0,5.4,112.0,6.6,'1111122,1111122,1111122' 
TCOON,ioos:station:TCOON:013:1,2016-04-03T22:18:00Z,27.4847,-97.3181,0.0,5.9,114.0,7.0,'1111122,1111122,1111122' 
TCOON,ioos:station:TCOON:013:1,2016-04-03T23:18:00Z,27.4847,-97.3181,0.0,5.6,132.0,7.6,'1111122,1111122,1111122' 
TCOON,ioos:station:TCOON:013:1,2016-04-04T00:18:00Z,27.4847,-97.3181,0.0,4.6,131.0,6.0,'1111122,1111122,1111122' 
TCOON,ioos:station:TCOON:013:1,2016-04-04T01:18:00Z,27.4847,-97.3181,0.0,5.1,134.0,6.2,'1111122,1111122,1111122' 
TCOON,ioos:station:TCOON:013:1,2016-04-04T02:18:00Z,27.4847,-97.3181,0.0,4.1,144.0,5.3,'1111122,1111122,1111122' 
TCOON,ioos:station:TCOON:013:1,2016-04-04T03:18:00Z,27.4847,-97.3181,0.0,4.5,134.0,5.5,'1111122,1111122,1111122' 
TCOON,ioos:station:TCOON:013:1,2016-04-04T04:24:00Z,27.4847,-97.3181,0.0,5.5,146.0,6.4,'1111122,1111122,1111122' 
TCOON,ioos:station:TCOON:013:1,2016-04-04T05:18:00Z,27.4847,-97.3181,0.0,5.2,151.0,6.4,'1111122,1111122,1111122' 
TCOON,ioos:station:TCOON:013:1,2016-04-04T06:18:00Z,27.4847,-97.3181,0.0,4.4,153.0,6.1,'1111122,1111122,1111122' 
TCOON,ioos:station:TCOON:013:1,2016-04-04T07:18:00Z,27.4847,-97.3181,0.0,4.2,167.0,4.9,'1111122,1111122,1111122' 
TCOON,ioos:station:TCOON:013:1,2016-04-04T08:18:00Z,27.4847,-97.3181,0.0,3.5,165.0,4.8,'1111122,1111122,1111122' 
TCOON,ioos:station:TCOON:013:1,2016-04-04T09:18:00Z,27.4847,-97.3181,0.0,3.6,175.0,4.3,'1111122,1111122,1111122' 
TCOON,ioos:station:TCOON:013:1,2016-04-04T10:18:00Z,27.4847,-97.3181,0.0,3.5,182.0,4.6,'1111122,1111122,1111122' 
TCOON,ioos:station:TCOON:013:1,2016-04-04T11:18:00Z,27.4847,-97.3181,0.0,3.1,219.0,3.7,'1111122,1111122,1111122' 
TCOON,ioos:station:TCOON:013:1,2016-04-04T12:18:00Z,27.4847,-97.3181,0.0,3.0,249.0,3.8,'1111122,1111122,1111122' 
TCOON,ioos:station:TCOON:013:1,2016-04-04T13:18:00Z,27.4847,-97.3181,0.0,1.5,297.0,2.0,'1111122,1111122,1111122' 
TCOON,ioos:station:TCOON:013:1,2016-04-04T14:18:00Z,27.4847,-97.3181,0.0,1.3,215.0,2.1,'1111122,1111122,1111122' 
TCOON,ioos:station:TCOON:013:1,2016-04-04T15:18:00Z,27.4847,-97.3181,0.0,3.8,211.0,4.4,'1111122,1111122,1111122' 
TCOON,ioos:station:TCOON:013:1,2016-04-04T16:18:00Z,27.4847,-97.3181,0.0,4.4,198.0,5.8,'1111122,1111122,1111122' 
TCOON,ioos:station:TCOON:013:1,2016-04-04T17:18:00Z,27.4847,-97.3181,0.0,3.7,208.0,4.2,'1111122,1111122,1111122' 
TCOON,ioos:station:TCOON:013:1,2016-04-04T18:18:00Z,27.4847,-97.3181,0.0,3.6,136.0,4.9,'1111122,1111122,1111122' 
TCOON,ioos:station:TCOON:013:1,2016-04-04T19:18:00Z,27.4847,-97.3181,0.0,2.9,157.0,4.1,'1111122,1111122,1111122' 
TCOON,ioos:station:TCOON:013:1,2016-04-04T20:18:00Z,27.4847,-97.3181,0.0,4.5,124.0,6.0,'1111122,1111122,1111122' 
TCOON,ioos:station:TCOON:013:1,2016-04-04T21:18:00Z,27.4847,-97.3181,0.0,5.0,104.0,6.6,'1111122,1111122,1111122' 
TCOON,ioos:station:TCOON:013:1,2016-04-04T22:18:00Z,27.4847,-97.3181,0.0,4.4,102.0,5.9,'1111122,1111122,1111122' 
TCOON,ioos:station:TCOON:013:1,2016-04-04T23:18:00Z,27.4847,-97.3181,0.0,5.1,108.0,6.2,'1111122,1111122,1111122' 
TCOON,ioos:station:TCOON:013:1,2016-04-05T00:18:00Z,27.4847,-97.3181,0.0,5.2,102.0,6.1,'1111122,1111122,1111122' 
TCOON,ioos:station:TCOON:013:1,2016-04-05T01:18:00Z,27.4847,-97.3181,0.0,3.7,104.0,4.5,'1111122,1111122,1111122' 
TCOON,ioos:station:TCOON:013:1,2016-04-05T02:18:00Z,27.4847,-97.3181,0.0,4.3,116.0,5.0,'1111122,1111122,1111122' 
TCOON,ioos:station:TCOON:013:1,2016-04-05T03:18:00Z,27.4847,-97.3181,0.0,4.1,113.0,5.2,'1111122,1111122,1111122' 
TCOON,ioos:station:TCOON:013:1,2016-04-05T04:24:00Z,27.4847,-97.3181,0.0,3.6,125.0,5.0,'1111122,1111122,1111122' 
TCOON,ioos:station:TCOON:013:1,2016-04-05T05:18:00Z,27.4847,-97.3181,0.0,3.2,126.0,4.2,'1111122,1111122,1111122' 
TCOON,ioos:station:TCOON:013:1,2016-04-05T06:18:00Z,27.4847,-97.3181,0.0,3.1,132.0,4.0,'1111122,1111122,1111122' 
TCOON,ioos:station:TCOON:013:1,2016-04-05T07:18:00Z,27.4847,-97.3181,0.0,3.0,140.0,3.6,'1111122,1111122,1111122' 
TCOON,ioos:station:TCOON:013:1,2016-04-05T08:18:00Z,27.4847,-97.3181,0.0,2.7,128.0,3.5,'1111122,1111122,1111122' 
TCOON,ioos:station:TCOON:013:1,2016-04-05T17:18:00Z,27.4847,-97.3181,0.0,5.8,123.0,7.6,'1111122,1111122,1111122' 
TCOON,ioos:station:TCOON:013:1,2016-04-05T18:24:00Z,27.4847,-97.3181,0.0,5.4,123.0,6.8,'1111122,1111122,1111122' 
TCOON,ioos:station:TCOON:013:1,2016-04-05T19:18:00Z,27.4847,-97.3181,0.0,5.2,130.0,7.4,'1111122,1111122,1111122' 
TCOON,ioos:station:TCOON:013:1,2016-04-05T20:18:00Z,27.4847,-97.3181,0.0,5.5,115.0,6.4,'1111122,1111122,1111122' 
TCOON,ioos:station:TCOON:013:1,2016-04-05T21:18:00Z,27.4847,-97.3181,0.0,6.6,106.0,8.1,'1111122,1111122,1111122' 
TCOON,ioos:station:TCOON:013:1,2016-04-05T22:18:00Z,27.4847,-97.3181,0.0,6.3,115.0,9.1,'1111122,1111122,1111122' 
TCOON,ioos:station:TCOON:013:1,2016-04-05T23:18:00Z,27.4847,-97.3181,0.0,6.9,120.0,8.0,'1111122,1111122,1111122' 
TCOON,ioos:station:TCOON:013:1,2016-04-06T00:18:00Z,27.4847,-97.3181,0.0,6.7,118.0,8.6,'1111122,1111122,1111122' 
TCOON,ioos:station:TCOON:013:1,2016-04-06T01:18:00Z,27.4847,-97.3181,0.0,6.6,121.0,8.4,'1111122,1111122,1111122' 
TCOON,ioos:station:TCOON:013:1,2016-04-06T02:18:00Z,27.4847,-97.3181,0.0,6.3,127.0,7.8,'1111122,1111122,1111122' 
TCOON,ioos:station:TCOON:013:1,2016-04-06T03:18:00Z,27.4847,-97.3181,0.0,7.6,132.0,8.9,'1111122,1111122,1111122' 
TCOON,ioos:station:TCOON:013:1,2016-04-06T04:18:00Z,27.4847,-97.3181,0.0,6.2,144.0,9.0,'1111122,1111122,1111122' 
TCOON,ioos:station:TCOON:013:1,2016-04-06T05:18:00Z,27.4847,-97.3181,0.0,7.9,145.0,9.6,'1111122,1111122,1111122' 
TCOON,ioos:station:TCOON:013:1,2016-04-06T06:18:00Z,27.4847,-97.3181,0.0,7.7,142.0,8.7,'1111122,1111122,1111122' 
TCOON,ioos:station:TCOON:013:1,2016-04-06T07:18:00Z,27.4847,-97.3181,0.0,6.3,148.0,8.8,'1111122,1111122,1111122' 
TCOON,ioos:station:TCOON:013:1,2016-04-06T08:18:00Z,27.4847,-97.3181,0.0,6.1,149.0,7.7,'1111122,1111122,1111122' 
TCOON,ioos:station:TCOON:013:1,2016-04-06T09:18:00Z,27.4847,-97.3181,0.0,6.0,158.0,7.4,'1111122,1111122,1111122' 
TCOON,ioos:station:TCOON:013:1,2016-04-06T10:18:00Z,27.4847,-97.3181,0.0,6.1,160.0,7.5,'1111122,1111122,1111122' 
TCOON,ioos:station:TCOON:013:1,2016-04-06T11:18:00Z,27.4847,-97.3181,0.0,6.0,159.0,7.1,'1111122,1111122,1111122' 
TCOON,ioos:station:TCOON:013:1,2016-04-06T12:18:00Z,27.4847,-97.3181,0.0,4.6,154.0,5.7,'1111122,1111122,1111122' 
TCOON,ioos:station:TCOON:013:1,2016-04-06T13:18:00Z,27.4847,-97.3181,0.0,5.8,157.0,7.4,'1111122,1111122,1111122' 
TCOON,ioos:station:TCOON:013:1,2016-04-06T14:18:00Z,27.4847,-97.3181,0.0,6.1,164.0,7.4,'1111122,1111122,1111122' 
TCOON,ioos:station:TCOON:013:1,2016-04-06T15:18:00Z,27.4847,-97.3181,0.0,5.2,204.0,6.3,'1111122,1111122,1111122' 
TCOON,ioos:station:TCOON:013:1,2016-04-06T16:18:00Z,27.4847,-97.3181,0.0,5.8,196.0,6.8,'1111122,1111122,1111122' 
TCOON,ioos:station:TCOON:013:1,2016-04-06T17:18:00Z,27.4847,-97.3181,0.0,0.9,161.0,1.8,'1111122,1111122,1111122' 
TCOON,ioos:station:TCOON:013:1,2016-04-06T18:18:00Z,27.4847,-97.3181,0.0,4.0,96.0,5.5,'1111122,1111122,1111122' 
TCOON,ioos:station:TCOON:013:1,2016-04-06T19:18:00Z,27.4847,-97.3181,0.0,5.0,77.0,5.9,'1111122,1111122,1111122' 
TCOON,ioos:station:TCOON:013:1,2016-04-06T20:18:00Z,27.4847,-97.3181,0.0,3.2,82.0,4.1,'1111122,1111122,1111122' 
TCOON,ioos:station:TCOON:013:1,2016-04-06T21:18:00Z,27.4847,-97.3181,0.0,6.6,111.0,8.3,'1111122,1111122,1111122' 
TCOON,ioos:station:TCOON:013:1,2016-04-06T22:18:00Z,27.4847,-97.3181,0.0,4.3,108.0,5.8,'1111122,1111122,1111122' 
TCOON,ioos:station:TCOON:013:1,2016-04-06T23:18:00Z,27.4847,-97.3181,0.0,3.8,102.0,5.3,'1111122,1111122,1111122' 
TCOON,ioos:station:TCOON:013:1,2016-04-07T00:18:00Z,27.4847,-97.3181,0.0,3.5,116.0,4.3,'1111122,1111122,1111122' 
TCOON,ioos:station:TCOON:013:1,2016-04-07T01:24:00Z,27.4847,-97.3181,0.0,2.4,103.0,3.1,'1111122,1111122,1111122' 
TCOON,ioos:station:TCOON:013:1,2016-04-07T02:18:00Z,27.4847,-97.3181,0.0,1.2,131.0,1.4,'1111122,1111122,1111122' 
TCOON,ioos:station:TCOON:013:1,2016-04-07T03:18:00Z,27.4847,-97.3181,0.0,0.7,117.0,0.8,'1111122,1111122,1111122' 
TCOON,ioos:station:TCOON:013:1,2016-04-07T04:24:00Z,27.4847,-97.3181,0.0,0.9,15.0,1.2,'1111122,1111122,1111122' 
TCOON,ioos:station:TCOON:013:1,2016-04-07T05:18:00Z,27.4847,-97.3181,0.0,1.4,320.0,1.8,'1111122,1111122,1111122' 
TCOON,ioos:station:TCOON:013:1,2016-04-07T06:24:00Z,27.4847,-97.3181,0.0,1.3,159.0,1.7,'1111122,1111122,1111122' 
TCOON,ioos:station:TCOON:013:1,2016-04-07T07:18:00Z,27.4847,-97.3181,0.0,1.6,213.0,1.8,'1111122,1111122,1111122' 
TCOON,ioos:station:TCOON:013:1,2016-04-07T08:18:00Z,27.4847,-97.3181,0.0,1.7,213.0,2.1,'1111122,1111122,1111122' 
TCOON,ioos:station:TCOON:013:1,2016-04-07T09:18:00Z,27.4847,-97.3181,0.0,2.2,244.0,2.6,'1111122,1111122,1111122' 
TCOON,ioos:station:TCOON:013:1,2016-04-07T10:18:00Z,27.4847,-97.3181,0.0,2.5,230.0,3.1,'1111122,1111122,1111122' 
TCOON,ioos:station:TCOON:013:1,2016-04-07T11:18:00Z,27.4847,-97.3181,0.0,0.9,327.0,1.5,'1111122,1111122,1111122' 
TCOON,ioos:station:TCOON:013:1,2016-04-07T12:18:00Z,27.4847,-97.3181,0.0,0.1,344.0,0.9,'1111122,1111122,1111122' 
TCOON,ioos:station:TCOON:013:1,2016-04-07T13:18:00Z,27.4847,-97.3181,0.0,0.9,22.0,1.7,'1111122,1111122,1111122' 
TCOON,ioos:station:TCOON:013:1,2016-04-07T14:18:00Z,27.4847,-97.3181,0.0,1.6,259.0,2.0,'1111122,1111122,1111122' 
TCOON,ioos:station:TCOON:013:1,2016-04-07T15:18:00Z,27.4847,-97.3181,0.0,0.9,242.0,1.3,'1111122,1111122,1111122' 
TCOON,ioos:station:TCOON:013:1,2016-04-07T16:18:00Z,27.4847,-97.3181,0.0,1.2,255.0,1.4,'1111122,1111122,1111122' 
TCOON,ioos:station:TCOON:013:1,2016-04-07T17:18:00Z,27.4847,-97.3181,0.0,4.6,130.0,6.2,'1111122,1111122,1111122' 
TCOON,ioos:station:TCOON:013:1,2016-04-07T19:42:00Z,27.4847,-97.3181,0.0,5.2,141.0,6.3,'1111122,1111122,1111122' 
TCOON,ioos:station:TCOON:013:1,2016-04-07T20:18:00Z,27.4847,-97.3181,0.0,4.9,140.0,6.0,'1111122,1111122,1111122' 
TCOON,ioos:station:TCOON:013:1,2016-04-07T21:18:00Z,27.4847,-97.3181,0.0,5.1,134.0,7.0,'1111122,1111122,1111122' 
TCOON,ioos:station:TCOON:013:1,2016-04-07T22:18:00Z,27.4847,-97.3181,0.0,5.8,123.0,6.8,'1111122,1111122,1111122' 
TCOON,ioos:station:TCOON:013:1,2016-04-07T23:18:00Z,27.4847,-97.3181,0.0,5.2,126.0,6.9,'1111122,1111122,1111122' 
TCOON,ioos:station:TCOON:013:1,2016-04-08T00:18:00Z,27.4847,-97.3181,0.0,4.4,137.0,5.9,'1111122,1111122,1111122' 
TCOON,ioos:station:TCOON:013:1,2016-04-08T01:18:00Z,27.4847,-97.3181,0.0,3.0,116.0,3.9,'1111122,1111122,1111122' 
TCOON,ioos:station:TCOON:013:1,2016-04-08T02:18:00Z,27.4847,-97.3181,0.0,3.2,120.0,4.0,'1111122,1111122,1111122' 
TCOON,ioos:station:TCOON:013:1,2016-04-08T03:18:00Z,27.4847,-97.3181,0.0,2.9,121.0,3.5,'1111122,1111122,1111122' 
TCOON,ioos:station:TCOON:013:1,2016-04-08T04:18:00Z,27.4847,-97.3181,0.0,2.3,108.0,2.9,'1111122,1111122,1111122' 
TCOON,ioos:station:TCOON:013:1,2016-04-08T05:18:00Z,27.4847,-97.3181,0.0,3.4,94.0,3.9,'1111122,1111122,1111122' 
TCOON,ioos:station:TCOON:013:1,2016-04-08T06:18:00Z,27.4847,-97.3181,0.0,2.7,99.0,3.7,'1111122,1111122,1111122' 
TCOON,ioos:station:TCOON:013:1,2016-04-08T07:18:00Z,27.4847,-97.3181,0.0,3.9,127.0,6.3,'1111122,1111122,1111122' 
TCOON,ioos:station:TCOON:013:1,2016-04-08T08:18:00Z,27.4847,-97.3181,0.0,2.5,123.0,3.3,'1111122,1111122,1111122' 
TCOON,ioos:station:TCOON:013:1,2016-04-08T09:18:00Z,27.4847,-97.3181,0.0,3.1,147.0,3.6,'1111122,1111122,1111122' 
TCOON,ioos:station:TCOON:013:1,2016-04-08T10:18:00Z,27.4847,-97.3181,0.0,1.9,114.0,2.4,'1111122,1111122,1111122' 
TCOON,ioos:station:TCOON:013:1,2016-04-08T11:18:00Z,27.4847,-97.3181,0.0,2.0,98.0,2.4,'1111122,1111122,1111122' 
TCOON,ioos:station:TCOON:013:1,2016-04-08T12:18:00Z,27.4847,-97.3181,0.0,2.5,104.0,3.1,'1111122,1111122,1111122' 
TCOON,ioos:station:TCOON:013:1,2016-04-08T13:18:00Z,27.4847,-97.3181,0.0,3.6,96.0,4.3,'1111122,1111122,1111122' 
TCOON,ioos:station:TCOON:013:1,2016-04-08T14:18:00Z,27.4847,-97.3181,0.0,5.1,93.0,5.8,'1111122,1111122,1111122' 
TCOON,ioos:station:TCOON:013:1,2016-04-08T15:18:00Z,27.4847,-97.3181,0.0,4.0,104.0,5.3,'1111122,1111122,1111122' 
TCOON,ioos:station:TCOON:013:1,2016-04-08T16:18:00Z,27.4847,-97.3181,0.0,4.1,97.0,6.2,'1111122,1111122,1111122' 
TCOON,ioos:station:TCOON:013:1,2016-04-08T17:18:00Z,27.4847,-97.3181,0.0,4.5,90.0,6.2,'1111122,1111122,1111122' 
TCOON,ioos:station:TCOON:013:1,2016-04-08T18:18:00Z,27.4847,-97.3181,0.0,5.8,80.0,7.5,'1111122,1111122,1111122' 
TCOON,ioos:station:TCOON:013:1,2016-04-08T19:18:00Z,27.4847,-97.3181,0.0,5.9,43.0,8.1,'1111122,1111122,1111122' 
TCOON,ioos:station:TCOON:013:1,2016-04-08T20:18:00Z,27.4847,-97.3181,0.0,7.0,66.0,9.6,'1111122,1111122,1111122' 
TCOON,ioos:station:TCOON:013:1,2016-04-08T21:18:00Z,27.4847,-97.3181,0.0,6.4,75.0,7.9,'1111122,1111122,1111122' 
TCOON,ioos:station:TCOON:013:1,2016-04-08T22:18:00Z,27.4847,-97.3181,0.0,5.3,82.0,7.5,'1111122,1111122,1111122' 
TCOON,ioos:station:TCOON:013:1,2016-04-08T23:18:00Z,27.4847,-97.3181,0.0,6.2,82.0,7.5,'1111122,1111122,1111122' 
TCOON,ioos:station:TCOON:013:1,2016-04-09T00:18:00Z,27.4847,-97.3181,0.0,6.6,86.0,8.3,'1111122,1111122,1111122' 
TCOON,ioos:station:TCOON:013:1,2016-04-09T01:18:00Z,27.4847,-97.3181,0.0,5.7,83.0,7.1,'1111122,1111122,1111122' 
TCOON,ioos:station:TCOON:013:1,2016-04-09T02:18:00Z,27.4847,-97.3181,0.0,6.1,87.0,7.7,'1111122,1111122,1111122' 
TCOON,ioos:station:TCOON:013:1,2016-04-09T03:18:00Z,27.4847,-97.3181,0.0,6.2,90.0,7.4,'1111122,1111122,1111122' 
TCOON,ioos:station:TCOON:013:1,2016-04-09T04:18:00Z,27.4847,-97.3181,0.0,5.3,97.0,7.5,'1111122,1111122,1111122' 
TCOON,ioos:station:TCOON:013:1,2016-04-09T05:18:00Z,27.4847,-97.3181,0.0,4.8,107.0,6.0,'1111122,1111122,1111122' 
TCOON,ioos:station:TCOON:013:1,2016-04-09T06:18:00Z,27.4847,-97.3181,0.0,4.6,117.0,6.3,'1111122,1111122,1111122' 
TCOON,ioos:station:TCOON:013:1,2016-04-09T07:18:00Z,27.4847,-97.3181,0.0,3.5,115.0,4.6,'1111122,1111122,1111122' 
TCOON,ioos:station:TCOON:013:1,2016-04-09T08:18:00Z,27.4847,-97.3181,0.0,2.6,134.0,3.1,'1111122,1111122,1111122' 
TCOON,ioos:station:TCOON:013:1,2016-04-09T09:18:00Z,27.4847,-97.3181,0.0,2.8,122.0,3.5,'1111122,1111122,1111122' 
TCOON,ioos:station:TCOON:013:1,2016-04-09T10:18:00Z,27.4847,-97.3181,0.0,4.6,108.0,5.6,'1111122,1111122,1111122' 
TCOON,ioos:station:TCOON:013:1,2016-04-09T11:18:00Z,27.4847,-97.3181,0.0,1.3,90.0,1.9,'1111122,1111122,1111122' 
TCOON,ioos:station:TCOON:013:1,2016-04-09T12:18:00Z,27.4847,-97.3181,0.0,11.1,106.0,12.2,'1111122,1111122,1111122' 
TCOON,ioos:station:TCOON:013:1,2016-04-09T13:18:00Z,27.4847,-97.3181,0.0,8.3,117.0,10.4,'1111122,1111122,1111122' 
TCOON,ioos:station:TCOON:013:1,2016-04-09T14:18:00Z,27.4847,-97.3181,0.0,8.0,138.0,10.2,'1111122,1111122,1111122' 
TCOON,ioos:station:TCOON:013:1,2016-04-09T15:18:00Z,27.4847,-97.3181,0.0,6.6,129.0,7.7,'1111122,1111122,1111122' 
TCOON,ioos:station:TCOON:013:1,2016-04-09T16:18:00Z,27.4847,-97.3181,0.0,5.5,124.0,8.0,'1111122,1111122,1111122' 
TCOON,ioos:station:TCOON:013:1,2016-04-09T17:18:00Z,27.4847,-97.3181,0.0,6.0,124.0,8.4,'1111122,1111122,1111122' 
TCOON,ioos:station:TCOON:013:1,2016-04-09T18:18:00Z,27.4847,-97.3181,0.0,6.8,135.0,10.0,'1111122,1111122,1111122' 
TCOON,ioos:station:TCOON:013:1,2016-04-09T19:18:00Z,27.4847,-97.3181,0.0,6.8,124.0,9.7,'1111122,1111122,1111122' 
TCOON,ioos:station:TCOON:013:1,2016-04-09T20:18:00Z,27.4847,-97.3181,0.0,8.2,123.0,10.0,'1111122,1111122,1111122' 
TCOON,ioos:station:TCOON:013:1,2016-04-09T21:18:00Z,27.4847,-97.3181,0.0,8.0,121.0,10.4,'1111122,1111122,1111122' 
TCOON,ioos:station:TCOON:013:1,2016-04-09T22:18:00Z,27.4847,-97.3181,0.0,8.7,124.0,10.3,'1111122,1111122,1111122' 
TCOON,ioos:station:TCOON:013:1,2016-04-09T23:18:00Z,27.4847,-97.3181,0.0,8.9,126.0,10.4,'1111122,1111122,1111122' 
TCOON,ioos:station:TCOON:013:1,2016-04-10T00:18:00Z,27.4847,-97.3181,0.0,7.6,121.0,10.5,'1111122,1111122,1111122' 
TCOON,ioos:station:TCOON:013:1,2016-04-10T01:18:00Z,27.4847,-97.3181,0.0,8.7,119.0,10.1,'1111122,1111122,1111122' 